Simultaneous Nadir Overpasses (SNOs) Predictions

Prediction of SNOs between FY3D and AQUA Satellite Orbit:

Table of predicted SNOs for the next 14.0 days since TLE Epoch: 9/28/2024
Index Date (FY3D) Time (FY3D) Lat,Lon (FY3D) SZA (FY3D ) Date (AQUA) Time (AQUA) Lat,Lon (AQUA) SZA (AQUA ) Distance(km) Time Diff (sec)
1 09/29/2024 08:51:45 79.65, 28.39 82.67 09/29/2024 08:52:43 79.64, 28.50 82.65 2.29 58
2 09/29/2024 09:42:23 -79.42,-162.28 97.64 09/29/2024 09:41:57 -79.42,-162.18 97.64 2.01 26
3 10/01/2024 20:04:25 79.61,-139.37 83.56 10/01/2024 20:05:34 79.61,-139.40 83.54 0.70 69
4 10/01/2024 20:55:04 -79.41, 29.70 96.71 10/01/2024 20:54:49 -79.42, 29.66 96.70 1.09 15
5 10/04/2024 08:07:47 -79.47,-138.96 95.68 10/04/2024 08:07:40 -79.47,-138.86 95.69 2.19 7
6 10/06/2024 19:20:26 -79.45, 53.11 94.78 10/06/2024 19:20:26 -79.46, 53.07 94.77 1.04 0
7 10/09/2024 06:33:08 -79.51,-115.46 93.78 10/09/2024 06:33:12 -79.50,-115.37 93.79 2.08 4
8 10/11/2024 17:45:47 -79.47, 76.69 92.90 10/11/2024 17:45:54 -79.48, 76.64 92.89 1.33 7



Historial Predications of SNOs between FY3D and AQUA
